User: anonymous   Login
Location: Unspecified
(0.0000°N, 0.0000°E)
Time: 22:37:15
(UTC+00:00)
Language:

STARLINK-1056 - Orbit

View from above orbital plane
View from above orbital plane
View from above satellite
View from above satellite

Ground track
Ground track

The orbit data is extracted from the following two-line orbital elements,

1 44761C 19074BA  20304.47898438  .00003222  00000-0  22068-3 0  3043
2 44761  52.9994   8.3883 0000936  81.9337 356.0349 15.05578107    11
Epoch (UTC): 30 October 2020 11:29:44
Eccentricity: 0.0000936
inclination: 52.9994°
perigee height: 549 km
apogee height: 550 km
right ascension of ascending node: 8.3883°
argument of perigee: 81.9337°
revolutions per day: 15.05578107
mean anomaly at epoch: 356.0349°
orbit number at epoch: 1

The dashed part of the orbit path shows where the satellite is in the earth's shadow,  

DLR